Location: Asheville, NC
(35.6000°N, 82.5500°W)
Time: 21:55:36
(UTC-04:00)

Gurwin Techsat 1B - Visible Passes

Search period start: 25 April 2018 00:00
Search period end: 05 May 2018 00:00
Orbit: 812 x 814 km, 98.6° (Epoch: 24 April)

Date Brightness Start Highest point End Pass type
(mag) Time Alt. Az. Time Alt. Az. Time Alt. Az.
25 Apr 10.7 02:35:55 10° NE 02:38:10 21° NE 02:38:10 21° NE visible
25 Apr 9.9 04:15:52 10° N 04:19:22 27° NW 04:19:22 27° NW visible
26 Apr 11.1 02:13:58 10° NE 02:15:08 14° ENE 02:15:08 14° ENE visible
26 Apr 9.5 03:52:38 10° N 03:56:21 38° NNW 03:56:21 38° NNW visible
27 Apr 9.4 03:29:38 10° N 03:33:20 46° N 03:33:20 46° N visible
28 Apr 9.8 03:06:52 10° NNE 03:10:18 39° NE 03:10:18 39° NE visible
28 Apr 10.5 04:48:37 10° NNW 04:51:30 15° WNW 04:51:31 15° WNW visible
29 Apr 10.3 02:44:21 10° NNE 02:47:17 28° NE 02:47:17 28° NE visible
29 Apr 10.0 04:24:45 10° NNW 04:28:30 24° WNW 04:28:30 24° WNW visible
30 Apr 10.8 02:22:12 10° NE 02:24:15 18° ENE 02:24:15 18° ENE visible
30 Apr 9.5 04:01:24 10° N 04:05:28 36° NW 04:05:28 36° NW visible
01 May 11.3 02:00:53 10° ENE 02:01:14 11° ENE 02:01:14 11° ENE visible
01 May 9.2 03:38:20 10° N 03:42:26 51° NNW 03:42:26 51° NNW visible
02 May 9.3 03:15:28 10° NNE 03:19:25 50° NNE 03:19:25 50° NNE visible
02 May 10.6 04:57:59 10° NW 05:00:01 12° WNW 05:00:37 12° WNW visible
03 May 9.9 02:52:50 10° NNE 02:56:23 36° ENE 02:56:23 36° ENE visible
03 May 10.1 04:33:43 10° NNW 04:37:29 20° WNW 04:37:35 20° WNW visible
04 May 10.5 02:30:31 10° NE 02:33:21 23° ENE 02:33:21 23° ENE visible
04 May 9.6 04:10:12 10° N 04:14:34 32° WNW 04:14:34 32° WNW visible
